Location: Prairie State College
(41.5244°N, 87.6382°W)
Time: 12:20:39
(UTC-05:00)

ARGOS Delta rocket - Visible Passes

Search period start: 27 July 2016 00:00
Search period end: 06 August 2016 00:00
Orbit: 637 x 838 km, 96.5° (Epoch: 26 July)

Date Brightness Start Highest point End Pass type
(mag) Time Alt. Az. Time Alt. Az. Time Alt. Az.
27 Jul 6.1 03:42:36 10° NE 03:46:34 22° E 03:50:21 10° SE visible
28 Jul 4.1 04:35:27 10° NNE 04:40:35 76° E 04:45:24 10° S visible
29 Jul 5.7 03:51:06 10° NNE 03:55:25 28° E 03:59:30 10° SSE visible
30 Jul 3.9 04:44:14 10° N 04:49:19 86° WNW 04:54:05 10° SSW visible
31 Jul 5.3 03:59:40 10° NNE 04:04:14 34° E 04:08:32 10° SSE visible
01 Aug 6.5 03:16:40 10° ENE 03:18:47 13° E 03:20:52 10° ESE visible
01 Aug 3.9 04:53:03 10° N 04:58:02 68° WNW 05:02:42 10° SSW visible
02 Aug 4.9 04:08:17 10° NNE 04:13:01 43° E 04:17:28 10° SSE visible
03 Aug 6.3 03:24:41 10° NE 03:27:39 16° E 03:30:32 10° SE visible
03 Aug 4.1 05:01:55 10° N 05:06:44 52° WNW 05:11:14 10° SSW visible
04 Aug 4.4 04:16:58 10° NNE 04:21:47 55° E 04:26:19 10° S visible
05 Aug 6.1 03:32:58 10° NE 03:36:31 20° E 03:39:54 10° SE visible
05 Aug 4.4 05:10:49 10° N 05:15:23 41° WNW 05:19:42 10° SW visible
